User: anonymous   Login
Location: Haulchin
(50.3172°N, 3.4360°E)
Time: 03:19:12
(UTC+00:00)
Language:

CZ-2D R/B - Orbit

View from above orbital plane
View from above orbital plane
View from above satellite
View from above satellite

Ground track
Ground track

The orbit data is extracted from the following two-line orbital elements,

1 37932U 11068C   24200.48954381  .00000378  00000-0  18800-3 0  9998
2 37932  98.7973 142.2199 0037852 112.5494   2.0477 14.22539356657129
Epoch (UTC): 18 July 2024 11:44:56
Eccentricity: 0.0037852
inclination: 98.7973°
perigee height: 789 km
apogee height: 844 km
right ascension of ascending node: 142.2199°
argument of perigee: 112.5494°
revolutions per day: 14.22539356
mean anomaly at epoch: 2.0477°
orbit number at epoch: 65712

The dashed part of the orbit path shows where the satellite is in the earth's shadow,  

DLR